www.pogodaiklimat.ru

Погода и климат >> Архив погоды >> Оман >> Sohar Majis


ПОГОДА в Sohar Majis

  • Прогноз погоды в Sohar Majis
  • Монитор погоды в Sohar Majis
  • Климат города

АРХИВ ПОГОДЫ в Sohar Majis

Время (UTC), дата Ветер
(напр.,м/с)
 
Видим.   Явления Облачность Т
(С)
Тd
(С)
f
(%)
Тe
(С)
Тes
(С)
Комфортность P
(гПа)
Po
(гПа)
Тmin
(С)
Tmax
(С)
R
(мм)
R24
(мм)
S
(см)
09 11.08 В 6 8000 м мгла 4/4 900 м
[Sc]
+32.1 +27.3 76 +51 +56 опасность
перегрева
1000.1 999.9
12 11.08 В 4 н/о н/о +33.6 +27.5 71 +53 +53 опасность
перегрева
999.3 998.9
15 11.08 ЮВ 4 н/о н/о +31.6 +27.3 78 +50 +50 опасность
перегрева
999.5 999.1
18 11.08 ЮВ 3 8000 м мгла 4/3 900 м
[Sc Ac trans]
+30.4 +27.4 84 +49 +49 опасность
перегрева
999.9 999.7 +34.2
21 11.08 ЮВ 3 н/о н/о +29.6 +27.4 88 +48 +48 опасность
перегрева
999.4 999.0
00 12.08 ЮЗ 1 н/о н/о +29.6 +27.9 91 1000.4 1000.0
03 12.08 ЮЗ 2 н/о н/о +30.0 +27.5 86 +48 +48 опасность
перегрева
1001.6 1001.2
06 12.08 Ю 2 н/о н/о +35.0 +26.7 62 +52 +52 опасность
перегрева
1001.7 1001.3 +29.1
09 12.08 В 6 н/о н/о +32.7 +28.7 80 +56 +56 опасность
перегрева
1000.5 1000.1
12 12.08 ЮВ 4 10 км 1/1 900 м
[Sc diur, vesp]
+33.6 +28.3 74 +55 +60 опасность
перегрева
998.7 998.5
15 12.08 ЮВ 4 н/о н/о +31.9 +28.6 83 +54 +54 опасность
перегрева
998.4 998.0
18 12.08 ЮВ 2 н/о н/о +30.4 +29.1 93 +53 +53 опасность
перегрева
999.2 998.8 +35.2
21 12.08 В 4 н/о н/о +30.1 +28.9 93 +52 +52 опасность
перегрева
997.9 997.4
00 13.08 штиль 0 н/о н/о +30.8 +29.1 91 +54 +54 опасность
перегрева
999.5 999.0
03 13.08 Ю 1 н/о н/о +31.0 +28.8 88 +53 +53 опасность
перегрева
1000.1 999.7
06 13.08 ЮВ 5 н/о н/о +33.1 +29.3 81 +58 +58 опасность
перегрева
1000.4 999.9 +30.0
09 13.08 В 4 8000 м мгла 4/4 900 м
[Sc diur, vesp]
+33.3 +29.0 78 +57 +66 опасность
перегрева
999.7 999.5
12 13.08 В 3 н/о н/о +34.2 +29.2 75 +58 +58 опасность
перегрева
998.9 998.5
15 13.08 В 3 н/о н/о +32.3 +29.6 86 +58 +58 опасность
перегрева
999.3 998.8
18 13.08 ЮВ 3 н/о н/о +31.4 +29.2 88 +55 +55 опасность
перегрева
1000.3 999.8 +34.9
21 13.08 штиль 0 н/о н/о +30.2 +29.3 95 +54 +54 опасность
перегрева
1000.4 999.9
00 14.08 В 1 н/о н/о +30.9 +29.4 92 +55 +55 опасность
перегрева
1001.0 1000.5
03 14.08 Ю 2 н/о н/о +31.1 +28.8 88 +54 +54 опасность
перегрева
1002.3 1001.9
06 14.08 ЮВ 4 8000 м мгла 6/3 480 м
[Sc Ac trans]
+33.1 +28.7 78 +56 +62 опасность
перегрева
1002.4 1002.2 +30.2
09 14.08 СВ 5 н/о н/о +34.2 +28.2 71 +55 +55 опасность
перегрева
1002.4 1002.0
12 14.08 В 4 8000 м мгла 4/4 840 м
[Sc diur, vesp]
+33.7 +28.2 73 +55 +58 опасность
перегрева
1001.0 1000.8
15 14.08 ЮВ 5 н/о н/о +31.5 +28.0 82 +52 +52 опасность
перегрева
1001.6 1001.2
18 14.08 ЮВ 2 н/о н/о +31.0 +28.0 84 +51 +51 опасность
перегрева
1002.7 1002.2 +35.1
21 14.08 штиль 0 н/о н/о +30.5 +29.0 92 +53 +53 опасность
перегрева
1002.4 1001.9
00 15.08 ЮВ 2 н/о н/о +30.5 +28.8 91 +53 +53 опасность
перегрева
1002.7 1002.3
03 15.08 В 5 н/о н/о +30.6 +27.9 86 +51 +51 опасность
перегрева
1004.4 1004.0
06 15.08 В 5 н/о н/о +33.0 +27.5 73 +52 +52 опасность
перегрева
1005.2 1004.8 +30.3
09 15.08 В 5 н/о н/о +31.4 +26.8 77 +49 +49 опасность
перегрева
1004.1 1003.6
12 15.08 В 5 7000 м мгла 4/4 900 м
[Sc diur, vesp]
+31.2 +26.9 78 +49 +51 опасность
перегрева
1002.4 1002.2
15 15.08 ЮВ 4 н/о н/о +30.8 +26.9 80 +48 +48 опасность
перегрева
1003.1 1002.6
18 15.08 ЮВ 3 н/о н/о +30.4 +27.1 83 +48 +48 опасность
перегрева
1004.0 1003.6 +32.9
21 15.08 ЮВ 1 н/о н/о +29.7 +27.1 86 +47 +47 опасность
перегрева
1003.3 1002.8
00 16.08 штиль 0 н/о н/о +29.8 +27.4 87 +48 +48 опасность
перегрева
1003.1 1002.6
03 16.08 В 2 н/о н/о +30.5 +26.8 81 +48 +48 опасность
перегрева
1004.8 1004.4
06 16.08 В 3 н/о н/о +32.2 +27.3 75 +51 +51 опасность
перегрева
1005.4 1004.9 +29.6
09 16.08 СВ 5 8000 м мгла 4/4 750 м
[Sc]
+32.9 +27.2 72 +51 +59 опасность
перегрева
1003.9 1003.7
12 16.08 В 3 н/о н/о +32.4 +27.2 74 +51 +51 опасность
перегрева
1002.2 1001.7
15 16.08 ЮВ 4 н/о н/о +31.1 +27.2 80 +49 +49 опасность
перегрева
1001.7 1001.3
18 16.08 В 3 н/о н/о +30.9 +28.0 85 +51 +51 опасность
перегрева
1002.8 1002.3 +33.8
21 16.08 В 2 н/о н/о +30.9 +28.3 86 +52 +52 опасность
перегрева
1001.7 1001.3
00 17.08 Ю 1 н/о н/о +30.2 +28.1 89 +50 +50 опасность
перегрева
1001.5 1001.1
03 17.08 ЮЗ 1 н/о н/о +31.5 +27.7 80 +51 +51 опасность
перегрева
1002.4 1002.0
06 17.08 В 4 н/о н/о +35.4 +28.6 68 +58 +58 опасность
перегрева
1002.3 1001.9 +30.0
09 17.08 СВ 6 8000 м мгла 3/3 900 м
[Sc diur, vesp]
+34.2 +29.6 77 +60 +66 опасность
перегрева
1001.5 1001.3
12 17.08 В 3 н/о н/о +34.3 +30.2 79 +62 +62 опасность
перегрева
1000.3 999.5
15 17.08 ЮВ 3 н/о н/о +32.8 +26.9 71 +50 +50 опасность
перегрева
999.7 999.3
18 17.08 С 1 н/о н/о +34.2 +26.4 64 +51 +51 опасность
перегрева
1000.5 1000.1 +35.4
21 17.08 Ю 1 н/о н/о +33.9 +21.9 50 +43 +43 опасность
перегрева
999.6 999.2
00 18.08 штиль 0 н/о н/о +32.5 +24.6 63 +45 +45 опасность
перегрева
999.1 998.7
03 18.08 н/о н/о +33.6 +24.9 60 1001.0 1000.5
06 18.08 СВ 3 н/о н/о +34.9 +28.8 71 +58 +58 опасность
перегрева
1001.6 1001.2 +32.0

 

Местоположение метеостанции Sohar Majis (Оман): широта 24.47 долгота 56.63 высота над уровнем моря 4 м.

В архиве по умолчанию представлена погода в Sohar Majis за последнюю неделю. Архивные данные за месяц целиком и за предыдущие месяцы, начиная с января 2011 года, Вы можете получить, выбрав интересующий диапазон дат из раскрывающегося списка и нажав кнопку "Ввод!".

Внимание! Время в таблицах - всемирное. Для получения местного времени необходимо прибавить поправку, которая в Sohar Majis равна 4 ч.

Смотрите также архив погоды в соседних городах и на ближайших метеорологических станциях:

Погода в Qumayra (Оман) (74 км)
Погода в Fujairah (ОАЭ) (76 км)
Погода в Buraimi (Оман) (90 км)
Погода в Suwaiq (Оман) (97 км)
Погода в Al Ain Int Airport (ОАЭ) (107 км)
Погода в Ibri (Оман) (117 км)
Погода в Diba (Оман) (134 км)
Погода в Rustaq (Оман) (144 км)
Погода в Ras Al Khaimah Int Airport (ОАЭ) (146 км)
Погода в Sharjah (ОАЭ) (147 км)

Пояснения к столбцам:

Ветер - указаны скорость ветра в м/с - средняя за 10 мин, порывы в срок и между сроками (в фигурных скобках) и направление, откуда дует ветер: С - северный, СВ - северо-восточный, В - восточный, ЮВ - юго-восточный, Ю - южный, ЮЗ - юго-западный, З - западный, СЗ - северо-западный.
Видимость - горизонтальная дальность видимости в метрах или километрах. При видимости от 1 до 10 км при отсутствии осадков обычно наблюдается дымка, при ухудшении видимости до 1 км и менее - туман. В сухую погоду видимость может ухудшаться дымом, пылью или мглою.
Явления - указаны атмосферные явления, наблюдавшиеся в срок или в последний час перед сроком; фигурными скобками обозначены явления, наблюдавшиеся между сроками (за 1-3 часа до срока); квадратными скобками обозначены град или гололедные отложения с указанием их диаметра в мм.
Облачность - указаны через наклонную черту общая и нижняя облачность в баллах и высота нижней границы облаков в метрах; квадратными скобками обозначены формы облаков: Ci - перистые, Cs - перисто-слоистые, Cc - перисто-кучевые, Ac - высококучевые, As - высокослоистые, Sc - слоисто-кучевые, Ns - слоисто-дождевые, Cu - кучевые, Cb - кучево-дождевые. Подробнее классификацию облаков см. в Атласе облаков (PDF).
T - Температура воздуха - температура, измеренная на высоте 2 м над землей.
Td - Температура точки росы - температура, при понижении до которой содержащийся в воздухе водяной пар достигнет насыщения.
f - Относительная влажность воздуха - влажноcть воздуха, измеренная на высоте 2 м над землей.
Te - Эффективная температура - температура, которую ощущает одетый по сезону человек в тени. Характеристика душности погоды. При расчете учитывается влияние влажности воздуха и скорости ветра на теплоощущения человека.
Tes - Эффективная температура на солнце - температура, которую ощущает человек, с поправкой на солнечный нагрев. Характеристика знойности погоды. Зависит от высоты солнца над горизонтом, облачности и скорости ветра. Ночью, в пасмурную погоду, а также при ветре 12 м/с и более поправка равна нулю.
P - Атмосферное давление - приведенное к уровню моря атмосферное давление.
Po - Атмосферное давление - измеренное на уровне метеостанции атмосферное давление.
Tmin - Минимальная температура - минимум температуры воздуха на высоте 2 м над землей.
Tmax - Максимальная температура - максимум температуры воздуха на высоте 2 м над землей.
R - Количество осадков - Количество выпавших осадков за период времени, мм. При наведении курсора мыши на число - период времени, за который выпало указанное количество осадков.
R24 - Количество осадков - Количество выпавших осадков за 24 часа, мм.
S - Снежный покров - Высота снежного покрова, см. При наведении курсора мыши на число - состояние снежного покрова и степень покрытия местности в баллах.